This is the latest recevied weather packets stored in our database for station/object W4KAB. If no packets are shown the sender has not sent any weather packets the latest 10 day(s).
| Time | Temp. | Humidity | Pressure | Rain* | Wind** | Luminosity | Snow |
|---|---|---|---|---|---|---|---|
| 1777383007 | 12.22° C | 99% | 1022 hPa | 0 mm | - | 33 W/m² | - |
| 1777382703 | 11.67° C | 99% | 1022 hPa | 0 mm | - | 29 W/m² | - |
| 1777382398 | 11.67° C | 99% | 1022.9 hPa | 1.27 mm | - | 24 W/m² | - |
| 1777382094 | 11.67° C | 99% | 1023.3 hPa | 1.27 mm | - | 20 W/m² | - |
| 1777381791 | 11.67° C | 99% | 1023.3 hPa | 1.78 mm | - | 16 W/m² | - |
| 1777381484 | 11.67° C | 99% | 1023.7 hPa | 1.78 mm | - | 12 W/m² | - |
| 1777381182 | 11.67° C | 99% | 1023.9 hPa | 1.27 mm | - | 13 W/m² | - |
| 1777380879 | 11.67° C | 99% | 1024.1 hPa | 3.05 mm | - | 21 W/m² | - |
| 1777380576 | 11.11° C | 99% | 1024.5 hPa | 1.78 mm | - | 18 W/m² | - |
| 1777380272 | 11.11° C | 99% | 1024.4 hPa | 1.27 mm | - | 16 W/m² | - |
| 1777379968 | 11.11° C | 99% | 1024.6 hPa | 3.05 mm | - | 16 W/m² | - |
| 1777379664 | 11.11° C | 99% | 1024.9 hPa | 1.78 mm | - | 12 W/m² | - |
| 1777379359 | 11.11° C | 99% | 1024.8 hPa | 1.27 mm | - | 10 W/m² | - |
| 1777379056 | 11.11° C | 99% | 1024.7 hPa | 1.27 mm | - | 9 W/m² | - |
| 1777378749 | 11.11° C | 99% | 1024.4 hPa | 1.78 mm | - | 8 W/m² | - |
| 1777378447 | 11.11° C | 99% | 1024.5 hPa | 1.78 mm | - | 7 W/m² | - |
| 1777378141 | 11.11° C | 99% | 1024.4 hPa | 3.05 mm | - | 6 W/m² | - |
| 1777377836 | 11.11° C | 99% | 1025.2 hPa | 4.32 mm | - | 5 W/m² | - |
| 1777377535 | 10.56° C | 99% | 1025.2 hPa | 3.05 mm | - | 3 W/m² | - |
| 1777377230 | 10.56° C | 99% | 1025.4 hPa | 3.56 mm | - | 1 W/m² | - |
| 1777376929 | 11.11° C | 99% | 1025.5 hPa | 4.83 mm | - | 1 W/m² | - |
| 1777376625 | 11.11° C | 99% | 1025.9 hPa | 6.1 mm | - | 0 W/m² | - |
| 1777376322 | 11.11° C | 99% | 1025.8 hPa | 6.1 mm | - | 1 W/m² | - |
| 1777376017 | 11.11° C | 99% | 1025.7 hPa | 4.32 mm | - | 0 W/m² | - |
| 1777375717 | 11.11° C | 99% | 1025.2 hPa | 4.32 mm | - | 0 W/m² | - |
* Rain latest hour (hover to see other rain measurements)
** Current wind speed in m/s (hover to see current wind gust speed)